BAW417 ELLX-EGLL

Flight info

Callsign BAW417
Flight time 0h 57m
Altitude 36000
Route LNO N852 TERLA L608 LOGAN
Aircraft A319/M-SDE3FGHIRWY/LB1

Departure

Time 2026-05-05 15:58
Airport Luxembourg-Findel International Airport (ELLX)

Arrival

Time 2026-05-05 16:55
Airport London Heathrow Airport (EGLL)
Time Latitude Longitude Altitude Speed Heading
2026-05-05 15:35 49.63392 6.21785 1195 ft 0 kts 331°
2026-05-05 15:49 49.63388 6.21788 1195 ft 3 kts 333°
2026-05-05 15:50 49.63365 6.21797 1195 ft 4 kts 21°
2026-05-05 15:50 49.63347 6.21773 1195 ft 4 kts 60°
2026-05-05 15:50 49.63340 6.21753 1195 ft 0 kts 60°
2026-05-05 15:52 49.63341 6.21759 1195 ft 4 kts 65°
2026-05-05 15:53 49.63351 6.21848 1195 ft 10 kts 82°
2026-05-05 15:53 49.63357 6.21957 1195 ft 10 kts 97°
2026-05-05 15:53 49.63319 6.22052 1196 ft 11 kts 131°
2026-05-05 15:53 49.63266 6.22128 1196 ft 10 kts 138°
2026-05-05 15:54 49.63257 6.22223 1197 ft 11 kts 70°
2026-05-05 15:54 49.63295 6.22348 1197 ft 15 kts 65°
2026-05-05 15:54 49.63350 6.22515 1197 ft 20 kts 60°
2026-05-05 15:54 49.63418 6.22703 1197 ft 20 kts 62°
2026-05-05 15:55 49.63488 6.22884 1197 ft 19 kts 61°
2026-05-05 15:55 49.63551 6.23058 1197 ft 18 kts 60°
2026-05-05 15:55 49.63612 6.23222 1197 ft 17 kts 60°
2026-05-05 15:55 49.63667 6.23371 1197 ft 15 kts 61°
2026-05-05 15:56 49.63705 6.23503 1197 ft 12 kts 95°
2026-05-05 15:56 49.63649 6.23551 1200 ft 8 kts 190°
2026-05-05 15:56 49.63603 6.23536 1205 ft 6 kts 192°
2026-05-05 15:56 49.63561 6.23521 1209 ft 9 kts 193°
2026-05-05 15:57 49.63506 6.23459 1210 ft 11 kts 240°
2026-05-05 15:57 49.63409 6.23200 1208 ft 54 kts 240°
2026-05-05 15:57 49.63121 6.22430 1208 ft 110 kts 240°
2026-05-05 15:57 49.62655 6.21182 1217 ft 158 kts 239°
2026-05-05 15:58 49.62081 6.19677 1707 ft 164 kts 238°
2026-05-05 15:58 49.61516 6.18153 2377 ft 165 kts 239°
2026-05-05 15:58 49.60920 6.16540 2755 ft 183 kts 239°
2026-05-05 15:58 49.60245 6.14723 3054 ft 208 kts 239°
2026-05-05 15:59 49.59481 6.12674 3445 ft 233 kts 239°
2026-05-05 15:59 49.58632 6.10399 3964 ft 255 kts 239°
2026-05-05 15:59 49.57731 6.07984 4837 ft 263 kts 238°
2026-05-05 15:59 49.56834 6.05503 5801 ft 268 kts 243°
2026-05-05 16:00 49.56533 6.02652 6673 ft 278 kts 277°
2026-05-05 16:00 49.57317 5.99958 7553 ft 286 kts 309°
2026-05-05 16:00 49.58980 5.98259 8445 ft 294 kts 342°
2026-05-05 16:00 49.61023 5.98051 9382 ft 299 kts
2026-05-05 16:01 49.63096 5.98605 10110 ft 310 kts 10°
2026-05-05 16:01 49.65299 5.99265 10386 ft 334 kts 10°
2026-05-05 16:01 49.67652 5.99975 10711 ft 353 kts 10°
2026-05-05 16:01 49.70103 6.00569 11326 ft 359 kts
2026-05-05 16:02 49.72611 6.00785 12023 ft 363 kts 360°
2026-05-05 16:02 49.75153 6.00766 12727 ft 367 kts 358°
2026-05-05 16:02 49.77723 6.00653 13426 ft 371 kts 357°
2026-05-05 16:02 49.80286 6.00532 14044 ft 376 kts 357°
2026-05-05 16:03 49.82911 6.00442 14651 ft 380 kts 359°
2026-05-05 16:03 49.85566 6.00394 15264 ft 383 kts 359°
2026-05-05 16:03 49.88247 6.00383 15893 ft 387 kts 360°
2026-05-05 16:03 49.90951 6.00396 16513 ft 390 kts
2026-05-05 16:04 49.93675 6.00418 17130 ft 394 kts
2026-05-05 16:04 49.96427 6.00441 17756 ft 397 kts
2026-05-05 16:04 49.99207 6.00464 18353 ft 401 kts
2026-05-05 16:04 50.02010 6.00480 18914 ft 404 kts
2026-05-05 16:05 50.04833 6.00492 19472 ft 407 kts 359°
2026-05-05 16:05 50.07661 6.00143 20025 ft 410 kts 350°
2026-05-05 16:05 50.10437 5.99061 20547 ft 412 kts 340°
2026-05-05 16:05 50.13135 5.97502 21060 ft 414 kts 338°
2026-05-05 16:06 50.15845 5.95925 21549 ft 417 kts 338°
2026-05-05 16:06 50.18587 5.94336 21794 ft 423 kts 339°
2026-05-05 16:06 50.21350 5.92739 21829 ft 424 kts 339°
2026-05-05 16:06 50.24082 5.91160 21827 ft 424 kts 339°
2026-05-05 16:07 50.26857 5.89557 21823 ft 424 kts 339°
2026-05-05 16:07 50.29626 5.87953 21836 ft 423 kts 338°
2026-05-05 16:07 50.32383 5.86350 21834 ft 423 kts 338°
2026-05-05 16:07 50.35156 5.84739 22120 ft 426 kts 338°
2026-05-05 16:08 50.37943 5.83120 22599 ft 428 kts 338°
2026-05-05 16:08 50.40744 5.81488 23072 ft 431 kts 338°
2026-05-05 16:08 50.43565 5.79841 23524 ft 434 kts 338°
2026-05-05 16:08 50.46367 5.78200 23923 ft 437 kts 338°
2026-05-05 16:09 50.49224 5.76528 24358 ft 440 kts 339°
2026-05-05 16:09 50.52099 5.74847 24822 ft 442 kts 339°
2026-05-05 16:09 50.54992 5.73154 25275 ft 445 kts 339°
2026-05-05 16:09 50.57902 5.71450 25715 ft 447 kts 339°
2026-05-05 16:10 50.60828 5.69743 26179 ft 450 kts 336°
2026-05-05 16:10 50.63631 5.67532 26594 ft 451 kts 327°
2026-05-05 16:10 50.66174 5.64638 26975 ft 452 kts 317°
2026-05-05 16:10 50.68334 5.61035 27347 ft 452 kts 305°
2026-05-05 16:11 50.70003 5.56849 27718 ft 451 kts 294°
2026-05-05 16:11 50.73045 5.42744 28775 ft 456 kts 285°
2026-05-05 16:12 50.74006 5.37950 29118 ft 459 kts 285°
2026-05-05 16:12 50.75941 5.28292 29785 ft 464 kts 285°
2026-05-05 16:13 50.78824 5.13757 30873 ft 464 kts 284°
2026-05-05 16:13 50.79783 5.08900 31294 ft 462 kts 284°
2026-05-05 16:13 50.80739 5.04052 31701 ft 462 kts 284°
2026-05-05 16:14 50.82621 4.94290 32491 ft 460 kts 283°
2026-05-05 16:14 50.84445 4.84631 33303 ft 460 kts 283°
2026-05-05 16:15 50.86266 4.74937 33858 ft 458 kts 283°
2026-05-05 16:15 50.88082 4.65302 33896 ft 456 kts 283°
2026-05-05 16:16 50.92941 4.46768 33886 ft 462 kts 298°
2026-05-05 16:17 50.97941 4.33775 33885 ft 462 kts 298°
2026-05-05 16:18 51.02934 4.20686 33895 ft 462 kts 298°
2026-05-05 16:19 51.07918 4.07566 33882 ft 462 kts 298°
2026-05-05 16:19 51.12878 3.94418 33879 ft 462 kts 298°
2026-05-05 16:20 51.19473 3.76856 33897 ft 462 kts 298°
2026-05-05 16:22 51.27671 3.54873 33890 ft 461 kts 297°
2026-05-05 16:23 51.34147 3.37302 33909 ft 459 kts 295°
2026-05-05 16:23 51.37716 3.23273 33922 ft 453 kts 287°
2026-05-05 16:24 51.39949 3.13837 33921 ft 452 kts 287°
2026-05-05 16:25 51.43281 2.99741 33936 ft 451 kts 287°
2026-05-05 16:25 51.46585 2.85614 33928 ft 450 kts 287°
2026-05-05 16:26 51.50948 2.66778 33926 ft 450 kts 288°
2026-05-05 16:27 51.53115 2.57416 33924 ft 450 kts 287°
2026-05-05 16:27 51.55281 2.47987 33934 ft 450 kts 288°
2026-05-05 16:28 51.57428 2.38560 33957 ft 448 kts 287°
2026-05-05 16:28 51.59562 2.29165 33958 ft 446 kts 288°
2026-05-05 16:29 51.61338 2.21383 33775 ft 444 kts 288°
2026-05-05 16:29 51.62395 2.16723 33499 ft 443 kts 287°
2026-05-05 16:29 51.63446 2.12064 33221 ft 443 kts 288°
2026-05-05 16:30 51.64497 2.07393 32389 ft 447 kts 287°
2026-05-05 16:30 51.65559 2.02647 31406 ft 453 kts 287°
2026-05-05 16:30 51.66630 1.97853 30422 ft 456 kts 287°
2026-05-05 16:30 51.67713 1.93006 29206 ft 464 kts 288°
2026-05-05 16:31 51.68797 1.88142 28669 ft 455 kts 288°
2026-05-05 16:31 51.69860 1.83376 28012 ft 450 kts 287°
2026-05-05 16:31 51.70913 1.78656 27363 ft 445 kts 288°
2026-05-05 16:31 51.71953 1.73979 26709 ft 441 kts 288°
2026-05-05 16:32 51.72977 1.69348 26065 ft 437 kts 287°
2026-05-05 16:32 51.73926 1.64718 25431 ft 432 kts 281°
2026-05-05 16:32 51.74410 1.59977 24795 ft 426 kts 271°
2026-05-05 16:32 51.74389 1.55235 24154 ft 420 kts 262°
2026-05-05 16:33 51.74092 1.50621 23530 ft 417 kts 262°
2026-05-05 16:33 51.73789 1.45973 22836 ft 415 kts 262°
2026-05-05 16:33 51.73490 1.41372 22226 ft 409 kts 263°
2026-05-05 16:33 51.73196 1.36835 21616 ft 404 kts 263°
2026-05-05 16:34 51.72903 1.32339 21008 ft 401 kts 263°
2026-05-05 16:34 51.72611 1.27878 20397 ft 399 kts 263°
2026-05-05 16:34 51.72318 1.23427 19809 ft 397 kts 263°
2026-05-05 16:34 51.72023 1.19014 19218 ft 395 kts 263°
2026-05-05 16:35 51.71731 1.14666 18631 ft 394 kts 263°
2026-05-05 16:35 51.71432 1.10292 18013 ft 392 kts 263°
2026-05-05 16:35 51.71134 1.05930 17399 ft 389 kts 263°
2026-05-05 16:35 51.70840 1.01617 16821 ft 385 kts 263°
2026-05-05 16:36 51.70548 0.97341 16246 ft 382 kts 263°
2026-05-05 16:36 51.70259 0.93117 15968 ft 377 kts 264°
2026-05-05 16:36 51.69968 0.88923 15937 ft 377 kts 264°
2026-05-05 16:36 51.69675 0.84720 15946 ft 377 kts 264°
2026-05-05 16:37 51.69381 0.80522 15946 ft 377 kts 264°
2026-05-05 16:37 51.69084 0.76313 15297 ft 381 kts 264°
2026-05-05 16:37 51.68782 0.72065 14685 ft 379 kts 264°
2026-05-05 16:37 51.68485 0.67881 14253 ft 371 kts 264°
2026-05-05 16:38 51.68195 0.63779 13818 ft 364 kts 264°
2026-05-05 16:38 51.67908 0.59764 13342 ft 357 kts 264°
2026-05-05 16:38 51.67622 0.55824 12869 ft 351 kts 263°
2026-05-05 16:38 51.67337 0.51962 12521 ft 342 kts 264°
2026-05-05 16:39 51.67064 0.48253 12191 ft 334 kts 263°
2026-05-05 16:39 51.66795 0.44586 11854 ft 324 kts 264°
2026-05-05 16:39 51.66537 0.41073 11524 ft 308 kts 264°
2026-05-05 16:39 51.66286 0.37708 11199 ft 298 kts 264°
2026-05-05 16:40 51.66041 0.34416 10875 ft 294 kts 264°
2026-05-05 16:40 51.65800 0.31147 10563 ft 293 kts 264°
2026-05-05 16:40 51.65557 0.27905 10244 ft 290 kts 264°
2026-05-05 16:40 51.65314 0.24692 9932 ft 288 kts 265°
2026-05-05 16:41 51.65075 0.21516 9595 ft 282 kts 264°
2026-05-05 16:41 51.64841 0.18399 9256 ft 279 kts 265°
2026-05-05 16:41 51.64598 0.15285 8975 ft 281 kts 264°
2026-05-05 16:41 51.64393 0.12145 8941 ft 283 kts 266°
2026-05-05 16:42 51.64218 0.08989 8945 ft 284 kts 266°
2026-05-05 16:42 51.64046 0.05819 8807 ft 285 kts 266°
2026-05-05 16:42 51.63884 0.02659 8541 ft 280 kts 267°
2026-05-05 16:42 51.63713 -0.00395 8336 ft 268 kts 267°
2026-05-05 16:43 51.63542 -0.03273 8095 ft 256 kts 266°
2026-05-05 16:43 51.63369 -0.06071 8000 ft 248 kts 266°
2026-05-05 16:43 51.63200 -0.08821 8012 ft 246 kts 266°
2026-05-05 16:43 51.63025 -0.11562 8018 ft 246 kts 266°
2026-05-05 16:44 51.62857 -0.14310 8020 ft 246 kts 266°
2026-05-05 16:44 51.62683 -0.17054 8024 ft 246 kts 266°
2026-05-05 16:44 51.62515 -0.19801 8028 ft 246 kts 266°
2026-05-05 16:44 51.62355 -0.22548 8029 ft 247 kts 266°
2026-05-05 16:45 51.62189 -0.25294 8032 ft 247 kts 266°
2026-05-05 16:45 51.62015 -0.28040 8030 ft 247 kts 266°
2026-05-05 16:45 51.61850 -0.30783 8030 ft 246 kts 266°
2026-05-05 16:45 51.61671 -0.33524 7945 ft 246 kts 266°
2026-05-05 16:46 51.61492 -0.36269 7945 ft 246 kts 266°
2026-05-05 16:46 51.61321 -0.39010 7946 ft 246 kts 266°
2026-05-05 16:46 51.61150 -0.41752 7946 ft 246 kts 266°
2026-05-05 16:46 51.60982 -0.44464 7948 ft 247 kts 266°
2026-05-05 16:47 51.60814 -0.47210 7948 ft 247 kts 266°
2026-05-05 16:47 51.60647 -0.49954 7947 ft 247 kts 266°
2026-05-05 16:47 51.60443 -0.52695 7945 ft 248 kts 259°
2026-05-05 16:47 51.59919 -0.55360 7710 ft 252 kts 251°
2026-05-05 16:48 51.59308 -0.57986 7350 ft 248 kts 251°
2026-05-05 16:48 51.58701 -0.60548 7016 ft 241 kts 250°
2026-05-05 16:48 51.58117 -0.63038 6672 ft 235 kts 250°
2026-05-05 16:48 51.57549 -0.65454 6329 ft 227 kts 251°
2026-05-05 16:49 51.57001 -0.67827 5967 ft 228 kts 252°
2026-05-05 16:49 51.56438 -0.70234 5603 ft 231 kts 251°
2026-05-05 16:49 51.55872 -0.72630 5219 ft 231 kts 250°
2026-05-05 16:49 51.55304 -0.75049 4838 ft 232 kts 251°
2026-05-05 16:50 51.54706 -0.77458 4436 ft 232 kts 244°
2026-05-05 16:50 51.53609 -0.79321 4061 ft 232 kts 208°
2026-05-05 16:50 51.52075 -0.79857 4004 ft 228 kts 173°
2026-05-05 16:50 51.50626 -0.78945 4007 ft 225 kts 139°
2026-05-05 16:51 51.49613 -0.77059 3998 ft 224 kts 123°
2026-05-05 16:51 51.48738 -0.75005 3793 ft 220 kts 121°
2026-05-05 16:51 51.47933 -0.72950 3378 ft 217 kts 111°
2026-05-05 16:51 51.47636 -0.70609 2890 ft 212 kts 87°
2026-05-05 16:52 51.47652 -0.68308 2561 ft 205 kts 87°
2026-05-05 16:52 51.47663 -0.66076 2287 ft 192 kts 86°
2026-05-05 16:52 51.47673 -0.64023 2033 ft 178 kts 86°
2026-05-05 16:52 51.47684 -0.62062 1788 ft 173 kts 86°
2026-05-05 16:53 51.47694 -0.60138 1556 ft 172 kts 87°
2026-05-05 16:53 51.47704 -0.58220 1326 ft 172 kts 87°
2026-05-05 16:53 51.47714 -0.56311 1087 ft 171 kts 86°
2026-05-05 16:53 51.47722 -0.54415 847 ft 166 kts 86°
2026-05-05 16:54 51.47729 -0.52675 636 ft 146 kts 86°
2026-05-05 16:54 51.47735 -0.51107 438 ft 137 kts 85°
2026-05-05 16:54 51.47742 -0.49593 271 ft 136 kts 87°
2026-05-05 16:54 51.47749 -0.48087 107 ft 132 kts 86°
2026-05-05 16:55 51.47755 -0.46806 92 ft 93 kts 90°
2026-05-05 16:55 51.47760 -0.46000 85 ft 58 kts 90°
2026-05-05 16:55 51.47751 -0.45562 86 ft 25 kts 107°
2026-05-05 16:55 51.47656 -0.45469 86 ft 13 kts 179°
2026-05-05 16:56 51.47600 -0.45468 86 ft 6 kts 179°
2026-05-05 16:56 51.47558 -0.45467 85 ft 8 kts 179°
2026-05-05 16:56 51.47511 -0.45530 88 ft 12 kts 255°
2026-05-05 16:56 51.47511 -0.45685 88 ft 15 kts 275°
2026-05-05 16:57 51.47518 -0.45874 85 ft 19 kts 271°
2026-05-05 16:57 51.47516 -0.46097 85 ft 21 kts 269°
2026-05-05 16:57 51.47515 -0.46352 85 ft 24 kts 270°
2026-05-05 16:57 51.47514 -0.46627 85 ft 22 kts 269°
2026-05-05 16:58 51.47495 -0.46827 87 ft 19 kts 262°
2026-05-05 16:58 51.47493 -0.47054 85 ft 22 kts 269°
2026-05-05 16:58 51.47492 -0.47314 85 ft 25 kts 270°
2026-05-05 16:58 51.47489 -0.47611 85 ft 28 kts 269°
2026-05-05 16:59 51.47490 -0.47892 85 ft 20 kts 270°
2026-05-05 16:59 51.47490 -0.48132 85 ft 23 kts 269°
2026-05-05 16:59 51.47488 -0.48405 88 ft 25 kts 269°
2026-05-05 16:59 51.47486 -0.48617 85 ft 17 kts 269°
2026-05-05 17:00 51.47485 -0.48736 88 ft 7 kts 266°
2026-05-05 17:00 51.47445 -0.48761 86 ft 8 kts 176°
2026-05-05 17:00 51.47405 -0.48759 85 ft 0 kts 179°
2026-05-05 17:00 51.47402 -0.48759 85 ft 0 kts 179°